Weather History for Bad Axe, MI

Change the Weather History Date:

Saturday, April 6, 2013

  Actual Average (KP58) Record (KP58)
Temperature  
Mean Temperature 32 °F -  
Max Temperature 42 °F 42 °F 70 °F (1997)
Min Temperature 21 °F 31 °F 18 °F (2007)
Degree Days  
Heating Degree Days 34    
Moisture  
Dew Point 24 °F    
Average Humidity 73    
Maximum Humidity 96    
Minimum Humidity 53    
Precipitation  
Precipitation 0.00 in - - ()
Sea Level Pressure  
Sea Level Pressure 30.10 in    
Wind  
Wind Speed 5 mph (SSE)    
Max Wind Speed 20 mph    
Max Gust Speed 29 mph    
Visibility 10 miles    
Events Snow    
Averages and records for this station are not official NWS values.
T = Trace of Precipitation, MM = Missing Value Source: NWS Daily Summary

Daily Weather History Graph

Daily Weather History Graph

Search for Another Location

Airport:

Trip Planner

Search our weather history database for the weather conditions in past years. The results will help you decide how hot, cold, wet, or windy it might be!

Date:

Astronomy

Apr. 06, 2013 Rise Set
Actual Time 7:04 AM EDT 8:05 PM EDT
Civil Twilight 6:34 AM EDT 8:34 PM EDT
Nautical Twilight 5:59 AM EDT 9:09 PM EDT
Astronomical Twilight 5:23 AM EDT 9:46 PM EDT
Moon 4:54 AM EDT (4/6) 4:26 PM EDT (4/6)
Length of Visible Light 13h 59m
Length of Day
13h 01m
Waning Crescent, 15% of the Moon is Illuminated
Apr 6
Waning Crescent
Apr 10
New
Apr 18
First Quarter
Apr 25
Full
May 2
Last Quarter

Hourly Weather History & Observations

Time (EDT) Temp. Windchill Dew Point Humidity Pressure Visibility Wind Dir Wind Speed Gust Speed Precip Events Conditions
12:13 AM 24.4 °F - 20.8 °F 86% 30.21 in 10.0 mi Calm Calm - N/A   Clear
12:34 AM 25.5 °F - 22.6 °F 89% 30.22 in 10.0 mi Calm Calm - N/A   Clear
12:53 AM 24.3 °F - 21.4 °F 89% 30.22 in 10.0 mi Calm Calm - N/A   Clear
1:13 AM 24.4 °F - 21.7 °F 89% 30.22 in 10.0 mi Calm Calm - N/A   Clear
1:34 AM 23.7 °F - 21.6 °F 91% 30.22 in 10.0 mi Calm Calm - N/A   Clear
1:53 AM 23.2 °F - 21.4 °F 93% 30.22 in 10.0 mi Calm Calm - N/A   Clear
2:13 AM 23.5 °F - 21.7 °F 93% 30.22 in 10.0 mi Calm Calm - N/A   Clear
2:34 AM 23.0 °F - 21.6 °F 94% 30.22 in 10.0 mi Calm Calm - N/A   Clear
2:53 AM 22.1 °F - 20.3 °F 93% 30.22 in 10.0 mi Calm Calm - N/A   Clear
3:13 AM 21.9 °F - 20.5 °F 94% 30.23 in 10.0 mi Calm Calm - N/A   Clear
3:34 AM 21.7 °F - 20.3 °F 94% 30.23 in 10.0 mi Calm Calm - N/A   Clear
3:53 AM 23.0 °F - 21.7 °F 95% 30.23 in 10.0 mi Calm Calm - N/A   Clear
4:13 AM 23.9 °F - 22.6 °F 95% 30.23 in 10.0 mi Calm Calm - N/A   Scattered Clouds
4:34 AM 22.8 °F - 21.0 °F 93% 30.23 in 10.0 mi Calm Calm - N/A   Clear
4:53 AM 21.7 °F - 20.3 °F 94% 30.23 in 10.0 mi Calm Calm - N/A   Scattered Clouds
5:14 AM 22.6 °F - 21.4 °F 95% 30.23 in 10.0 mi Calm Calm - N/A   Overcast
5:33 AM 24.1 °F - 23.0 °F 96% 30.24 in 10.0 mi Calm Calm - N/A   Overcast
5:53 AM 25.5 °F - 24.3 °F 95% 30.24 in 10.0 mi Calm Calm - N/A   Overcast
6:14 AM 26.4 °F - 24.8 °F 94% 30.24 in 10.0 mi Calm Calm - N/A   Overcast
6:33 AM 27.1 °F - 25.3 °F 93% 30.23 in 10.0 mi Calm Calm - N/A   Overcast
6:53 AM 27.9 °F - 25.3 °F 90% 30.23 in 10.0 mi Calm Calm - N/A   Overcast
7:14 AM 27.9 °F - 25.2 °F 90% 30.24 in 10.0 mi Calm Calm - N/A   Overcast
7:33 AM 28.2 °F - 25.3 °F 89% 30.24 in 10.0 mi Calm Calm - N/A   Overcast
7:53 AM 29.1 °F 25.4 °F 25.3 °F 86% 30.25 in 10.0 mi SSE 3.5 mph - N/A   Overcast
8:14 AM 29.7 °F 26.1 °F 25.3 °F 84% 30.24 in 10.0 mi SSE 3.5 mph - N/A   Overcast
8:33 AM 30.4 °F 23.6 °F 25.5 °F 82% 30.23 in 10.0 mi SSE 6.9 mph - N/A   Overcast
8:53 AM 31.8 °F 26.2 °F 25.7 °F 78% 30.23 in 10.0 mi SE 5.8 mph - N/A   Mostly Cloudy
9:14 AM 32.0 °F 26.4 °F 26.4 °F 80% 30.22 in 10.0 mi SSE 5.8 mph - N/A   Mostly Cloudy
9:33 AM 32.9 °F 25.3 °F 26.6 °F 78% 30.22 in 10.0 mi SE 9.2 mph - N/A   Overcast
9:53 AM 33.3 °F 25.1 °F 26.2 °F 75% 30.23 in 10.0 mi SSE 10.4 mph 19.6 mph N/A   Overcast
10:14 AM 34.2 °F 25.2 °F 25.9 °F 72% 30.22 in 10.0 mi SSE 12.7 mph 17.3 mph N/A   Overcast
10:33 AM 34.3 °F 25.9 °F 25.3 °F 70% 30.22 in 10.0 mi SSE 11.5 mph 21.9 mph N/A   Overcast
10:54 AM 33.6 °F 25.0 °F 25.2 °F 71% 30.22 in 10.0 mi SSE 11.5 mph - N/A   Overcast
11:14 AM 34.2 °F 26.8 °F 25.5 °F 71% 30.21 in 10.0 mi SSE 9.2 mph - N/A   Overcast
11:33 AM 34.0 °F 25.5 °F 24.8 °F 69% 30.21 in 10.0 mi SSE 11.5 mph 18.4 mph N/A   Overcast
11:54 AM 34.0 °F 26.6 °F 25.2 °F 70% 30.20 in 10.0 mi SSE 9.2 mph - N/A   Overcast
12:14 PM 34.0 °F 26.0 °F 24.3 °F 68% 30.20 in 10.0 mi SSE 10.4 mph 16.1 mph N/A   Overcast
12:33 PM 34.5 °F 26.7 °F 24.4 °F 67% 30.19 in 10.0 mi SSE 10.4 mph 16.1 mph N/A   Overcast
12:54 PM 35.8 °F 27.8 °F 24.6 °F 64% 30.17 in 10.0 mi SE 11.5 mph 19.6 mph N/A   Overcast
1:14 PM 36.0 °F 26.0 °F 23.4 °F 60% 30.17 in 10.0 mi South 17.3 mph 20.7 mph N/A   Overcast
1:33 PM 36.0 °F 27.1 °F 23.0 °F 59% 30.15 in 10.0 mi SSE 13.8 mph 19.6 mph N/A   Overcast
1:54 PM 36.7 °F 27.6 °F 23.7 °F 59% 30.15 in 10.0 mi SSE 15.0 mph 20.7 mph N/A   Overcast
2:14 PM 36.9 °F 28.7 °F 22.3 °F 56% 30.13 in 10.0 mi SSE 12.7 mph 21.9 mph N/A   Overcast
2:33 PM 38.1 °F 29.1 °F 23.5 °F 56% 30.11 in 10.0 mi SE 16.1 mph 20.7 mph N/A   Mostly Cloudy
2:54 PM 38.7 °F 29.8 °F 24.4 °F 57% 30.09 in 10.0 mi SSE 16.1 mph 23.0 mph N/A   Mostly Cloudy
3:14 PM 38.5 °F 29.9 °F 24.3 °F 57% 30.08 in 10.0 mi SSE 15.0 mph 19.6 mph N/A   Overcast
3:33 PM 39.2 °F 30.2 °F 23.9 °F 54% 30.07 in 10.0 mi SSE 17.3 mph 25.3 mph N/A   Overcast
3:54 PM 39.9 °F 31.1 °F 24.1 °F 53% 30.05 in 10.0 mi SSE 17.3 mph 23.0 mph N/A   Overcast
4:13 PM 39.6 °F 31.7 °F 23.5 °F 53% 30.04 in 10.0 mi SE 13.8 mph 24.2 mph N/A   Overcast
4:33 PM 39.4 °F 32.7 °F 24.1 °F 54% 30.04 in 10.0 mi SSE 10.4 mph - N/A   Overcast
4:54 PM 39.2 °F 33.0 °F 24.4 °F 56% 30.01 in 10.0 mi SE 9.2 mph 18.4 mph N/A   Overcast
5:13 PM 39.2 °F 31.6 °F 24.6 °F 56% 30.00 in 10.0 mi SE 12.7 mph 17.3 mph N/A   Overcast
5:33 PM 37.8 °F 31.8 °F 26.6 °F 64% 29.99 in 5.0 mi SE 8.1 mph 16.1 mph N/A Snow Light Snow
5:54 PM 37.4 °F 30.8 °F 27.7 °F 68% 29.99 in 10.0 mi SSE 9.2 mph - N/A   Overcast
6:13 PM 37.4 °F 30.8 °F 28.4 °F 70% 29.94 in 10.0 mi ESE 9.2 mph 17.3 mph N/A   Overcast
6:34 PM 37.4 °F 29.3 °F 27.9 °F 68% 29.93 in 10.0 mi SE 12.7 mph 19.6 mph N/A   Overcast
6:54 PM 37.6 °F 30.0 °F 26.4 °F 64% 29.93 in 10.0 mi SE 11.5 mph 18.4 mph N/A   Overcast
7:13 PM 37.8 °F 30.2 °F 25.7 °F 62% 29.91 in 10.0 mi SE 11.5 mph 20.7 mph N/A   Overcast
7:34 PM 37.9 °F 30.0 °F 25.7 °F 61% 29.89 in 10.0 mi SE 12.7 mph 23.0 mph N/A   Overcast
7:54 PM 38.3 °F 29.0 °F 25.5 °F 60% 29.87 in 10.0 mi SSE 17.3 mph 28.8 mph N/A   Scattered Clouds
8:13 PM 38.5 °F 29.2 °F 25.3 °F 59% 29.85 in 10.0 mi SE 17.3 mph 23.0 mph N/A   Scattered Clouds
8:34 PM 39.2 °F 32.0 °F 25.3 °F 58% 29.84 in 10.0 mi SSE 11.5 mph 20.7 mph N/A   Scattered Clouds
8:54 PM 39.4 °F 31.8 °F 25.5 °F 58% 29.85 in 10.0 mi SSE 12.7 mph 21.9 mph N/A   Scattered Clouds
9:13 PM 39.7 °F 31.9 °F 25.5 °F 57% 29.85 in 10.0 mi SSE 13.8 mph - N/A   Mostly Cloudy
9:34 PM 40.5 °F 33.6 °F 25.5 °F 55% 29.85 in 10.0 mi South 11.5 mph 18.4 mph N/A   Overcast
9:54 PM 40.8 °F 34.1 °F 25.5 °F 55% 29.83 in 10.0 mi SSE 11.5 mph 17.3 mph N/A   Overcast
10:13 PM 40.8 °F 32.9 °F 25.7 °F 55% 29.82 in 10.0 mi South 15.0 mph - N/A   Overcast
10:34 PM 41.2 °F 33.4 °F 25.7 °F 54% 29.80 in 10.0 mi SSE 15.0 mph 19.6 mph N/A   Overcast
10:54 PM 41.4 °F 32.4 °F 26.1 °F 55% 29.78 in 10.0 mi SSE 19.6 mph 24.2 mph N/A   Overcast
11:13 PM 41.9 °F 34.0 °F 25.9 °F 53% 29.77 in 10.0 mi SSE 16.1 mph 24.2 mph N/A   Overcast
11:34 PM 42.1 °F 33.6 °F 25.9 °F 53% 29.75 in 10.0 mi South 18.4 mph 23.0 mph N/A   Overcast
11:53 PM 41.9 °F 33.7 °F 26.6 °F 55% 29.75 in 10.0 mi SSE 17.3 mph 21.9 mph N/A   Overcast